TimeCDT,TemperatureF,Dew PointF,Humidity,Sea Level PressureIn,VisibilityMPH,Wind Direction,Wind SpeedMPH,Gust SpeedMPH,PrecipitationIn,Events,Conditions,WindDirDegrees,DateUTC
12:12 AM,42.8,42.8,100,29.75,0.2,WNW,3.5,-,N/A,Fog,Fog,290,2012-10-20 05:12:00
12:32 AM,42.8,42.8,100,29.75,4.0,West,3.5,-,N/A,,Overcast,280,2012-10-20 05:32:00
12:52 AM,42.8,42.8,100,29.75,4.0,West,3.5,-,N/A,,Overcast,280,2012-10-20 05:52:00
1:12 AM,42.8,42.8,100,29.75,4.0,Calm,Calm,-,N/A,,Mostly Cloudy,0,2012-10-20 06:12:00
1:32 AM,42.8,42.8,100,29.75,3.0,Calm,Calm,-,N/A,,Mostly Cloudy,0,2012-10-20 06:32:00
1:52 AM,42.8,42.8,100,29.75,4.0,WNW,3.5,-,N/A,,Overcast,300,2012-10-20 06:52:00
2:12 AM,42.8,42.8,100,29.75,7.0,Calm,Calm,-,N/A,,Overcast,0,2012-10-20 07:12:00
2:32 AM,41.0,41.0,100,29.75,5.0,Calm,Calm,-,N/A,,Mostly Cloudy,0,2012-10-20 07:32:00
2:52 AM,42.8,41.0,93,29.75,5.0,Calm,Calm,-,N/A,,Mostly Cloudy,0,2012-10-20 07:52:00
3:12 AM,42.8,41.0,93,29.75,7.0,Calm,Calm,-,N/A,,Overcast,0,2012-10-20 08:12:00
3:32 AM,41.0,41.0,100,29.75,5.0,Calm,Calm,-,N/A,,Overcast,0,2012-10-20 08:32:00
3:52 AM,41.0,39.2,93,29.75,5.0,Calm,Calm,-,N/A,,Scattered Clouds,0,2012-10-20 08:52:00
4:13 AM,39.2,39.2,100,29.76,5.0,Calm,Calm,-,N/A,,Mostly Cloudy,0,2012-10-20 09:13:00
4:32 AM,39.2,39.2,100,29.76,5.0,West,4.6,-,N/A,,Overcast,260,2012-10-20 09:32:00
4:52 AM,41.0,39.2,93,29.76,5.0,Calm,Calm,-,N/A,,Overcast,0,2012-10-20 09:52:00
5:13 AM,41.0,39.2,93,29.76,4.0,Calm,Calm,-,N/A,,Overcast,0,2012-10-20 10:13:00
5:32 AM,41.0,39.2,93,29.77,3.0,Calm,Calm,-,N/A,,Overcast,0,2012-10-20 10:32:00
5:52 AM,41.0,39.2,93,29.78,2.5,Calm,Calm,-,N/A,,Overcast,0,2012-10-20 10:52:00
6:13 AM,41.0,39.2,93,29.78,2.5,Calm,Calm,-,N/A,,Overcast,0,2012-10-20 11:13:00
6:32 AM,41.0,39.2,93,29.79,2.5,Calm,Calm,-,N/A,,Overcast,0,2012-10-20 11:32:00
6:52 AM,39.2,39.2,100,29.79,2.5,Calm,Calm,-,N/A,,Overcast,0,2012-10-20 11:52:00
7:13 AM,39.2,39.2,100,29.79,2.0,WSW,4.6,-,N/A,,Overcast,240,2012-10-20 12:13:00
7:32 AM,39.2,39.2,100,29.79,2.0,Calm,Calm,-,N/A,,Overcast,0,2012-10-20 12:32:00
7:52 AM,41.0,41.0,100,29.80,1.8,West,3.5,-,N/A,,Overcast,270,2012-10-20 12:52:00
8:12 AM,41.0,41.0,100,29.81,1.5,Calm,Calm,-,N/A,,Overcast,0,2012-10-20 13:12:00
8:32 AM,41.0,41.0,100,29.81,1.8,SW,3.5,-,N/A,,Overcast,220,2012-10-20 13:32:00
8:52 AM,41.0,41.0,100,29.81,1.8,Calm,Calm,-,N/A,,Overcast,0,2012-10-20 13:52:00
9:12 AM,41.0,41.0,100,29.80,2.0,Calm,Calm,-,N/A,,Overcast,0,2012-10-20 14:12:00
9:32 AM,41.0,41.0,100,29.80,2.0,South,4.6,-,N/A,,Overcast,190,2012-10-20 14:32:00
9:52 AM,41.0,41.0,100,29.82,2.5,SSW,4.6,-,N/A,,Overcast,200,2012-10-20 14:52:00
10:12 AM,41.0,41.0,100,29.83,3.0,SW,4.6,-,N/A,,Overcast,220,2012-10-20 15:12:00
10:32 AM,42.8,41.0,93,29.82,5.0,SW,4.6,-,N/A,,Overcast,230,2012-10-20 15:32:00
10:52 AM,42.8,41.0,93,29.83,7.0,South,3.5,-,N/A,,Overcast,180,2012-10-20 15:52:00
11:12 AM,42.8,42.8,100,29.83,7.0,SW,5.8,-,N/A,,Overcast,220,2012-10-20 16:12:00
11:32 AM,42.8,42.8,100,29.83,7.0,SSW,3.5,-,N/A,,Overcast,210,2012-10-20 16:32:00
11:52 AM,44.6,42.8,93,29.83,7.0,SSW,4.6,-,N/A,,Overcast,200,2012-10-20 16:52:00
12:12 PM,44.6,42.8,93,29.82,7.0,SSW,4.6,-,N/A,,Overcast,210,2012-10-20 17:12:00
12:33 PM,44.6,42.8,93,29.82,7.0,SW,4.6,-,N/A,,Overcast,220,2012-10-20 17:33:00
12:52 PM,44.6,42.8,93,29.82,7.0,SSW,4.6,-,N/A,,Overcast,200,2012-10-20 17:52:00
1:12 PM,44.6,42.8,93,29.81,7.0,South,4.6,-,N/A,,Overcast,190,2012-10-20 18:12:00
1:33 PM,44.6,42.8,93,29.82,7.0,South,6.9,-,N/A,,Overcast,170,2012-10-20 18:33:00
1:52 PM,44.6,44.6,100,29.80,7.0,Calm,Calm,-,N/A,,Overcast,0,2012-10-20 18:52:00
2:12 PM,46.4,42.8,87,29.80,7.0,SSW,4.6,-,N/A,,Overcast,200,2012-10-20 19:12:00
2:33 PM,46.4,44.6,93,29.78,7.0,SSE,6.9,-,N/A,,Overcast,150,2012-10-20 19:33:00
2:52 PM,46.4,44.6,93,29.79,7.0,SSE,8.1,-,N/A,,Overcast,150,2012-10-20 19:52:00
3:12 PM,46.4,44.6,93,29.78,10.0,SSE,8.1,-,N/A,,Overcast,160,2012-10-20 20:12:00
3:33 PM,46.4,44.6,93,29.79,10.0,South,8.1,-,N/A,,Overcast,170,2012-10-20 20:33:00
3:52 PM,46.4,44.6,93,29.79,10.0,South,4.6,-,N/A,,Overcast,170,2012-10-20 20:52:00
4:12 PM,46.4,44.6,93,29.79,10.0,South,8.1,-,N/A,,Overcast,170,2012-10-20 21:12:00
4:33 PM,46.4,44.6,93,29.79,10.0,South,6.9,-,N/A,,Overcast,170,2012-10-20 21:33:00
4:52 PM,46.4,44.6,93,29.79,10.0,South,6.9,-,N/A,,Overcast,170,2012-10-20 21:52:00
5:12 PM,46.4,44.6,93,29.79,10.0,South,5.8,-,N/A,,Overcast,170,2012-10-20 22:12:00
5:32 PM,46.4,44.6,93,29.79,10.0,SSE,5.8,-,N/A,,Overcast,150,2012-10-20 22:32:00
5:52 PM,46.4,44.6,93,29.79,10.0,SE,6.9,-,N/A,,Overcast,140,2012-10-20 22:52:00
6:12 PM,46.4,44.6,93,29.79,10.0,SE,5.8,-,N/A,,Overcast,130,2012-10-20 23:12:00
6:32 PM,46.4,44.6,93,29.79,10.0,SE,5.8,-,N/A,,Overcast,130,2012-10-20 23:32:00
6:52 PM,46.4,44.6,93,29.79,7.0,SE,6.9,-,N/A,,Overcast,130,2012-10-20 23:52:00
7:12 PM,46.4,44.6,93,29.80,10.0,SSE,6.9,-,N/A,,Overcast,150,2012-10-21 00:12:00
7:32 PM,46.4,44.6,93,29.80,10.0,SSE,8.1,-,N/A,,Overcast,160,2012-10-21 00:32:00
7:52 PM,46.4,44.6,93,29.81,10.0,South,8.1,-,N/A,,Overcast,170,2012-10-21 00:52:00
8:12 PM,46.4,42.8,87,29.81,10.0,South,6.9,-,N/A,,Overcast,170,2012-10-21 01:12:00
8:32 PM,46.4,42.8,87,29.82,10.0,SSE,5.8,-,N/A,,Mostly Cloudy,160,2012-10-21 01:32:00
8:52 PM,44.6,42.8,93,29.82,7.0,SSE,4.6,-,N/A,,Clear,160,2012-10-21 01:52:00
9:12 PM,44.6,42.8,93,29.81,7.0,SSE,5.8,-,N/A,,Clear,160,2012-10-21 02:12:00
9:32 PM,42.8,42.8,100,29.81,7.0,SSE,5.8,-,N/A,,Clear,160,2012-10-21 02:32:00
9:52 PM,44.6,42.8,93,29.81,7.0,SSE,8.1,-,N/A,,Clear,160,2012-10-21 02:52:00
10:12 PM,44.6,42.8,93,29.82,7.0,SSE,9.2,-,N/A,,Clear,150,2012-10-21 03:12:00
10:32 PM,44.6,42.8,93,29.82,7.0,South,8.1,-,N/A,,Clear,170,2012-10-21 03:32:00
10:52 PM,44.6,42.8,93,29.82,7.0,SSE,8.1,-,N/A,,Clear,160,2012-10-21 03:52:00
11:32 PM,44.6,42.8,93,29.82,7.0,SSE,9.2,-,N/A,,Clear,160,2012-10-21 04:32:00
11:52 PM,44.6,42.8,93,29.82,7.0,SSE,9.2,-,N/A,,Clear,160,2012-10-21 04:52:00